Location: All Nations United Methodist Church
(33.0215°N, 96.7483°W)
Time: 15:10:11
(UTC+00:00)

Cosmos 1300 - Pass Details

Date: 24 January 2021
Orbit: 511 x 513 km, 82.5° (Epoch: 06 March)

Event Time Altitude Azimuth Distance (km) Brightness Sun altitude
Rises 12:44:26 0° 199° (SSW) 2,607 6.3 -9.2°
Reaches altitude 10° 12:46:37 10° 206° (SSW) 1,726 5.3 -8.8°
Maximum altitude 12:50:15 43° 279° (W) 727 3.0 -8.0°
Drops below altitude 10° 12:53:53 10° 352° (N) 1,740 5.1 -7.3°
Sets 12:56:06 0° 359° (N) 2,630 6.1 -6.9°
